Home > Weather > Krasnodar > Past weeks

Flag for Russia Past Weather in Krasnodar, Russia — Yesterday and Last 2 Weeks

Now
66 °F

Passing clouds.


Feels Like: 66 °F
Forecast: 61 / 96 °F
Wind: 6 mph from North

Location: Krasnodar Airport

Current Time: Jul 31, 2016 at 1:36:07 AM

Latest Report: Jul 31, 2016 at 1:00 AM


Visibility: N/A

Pressure: 29.83 "Hg

Humidity: 73%

Dew Point: 57 °F

Location of KrasnodarLocation

Past Weather in Krasnodar — Graph

°F

Krasnodar Temperature Yesterday

Maximum temperature yesterday: 91 °F (at 1:30 PM)
Minimum temperature yesterday: 63 °F (at 3:30 AM)
Average temperature yesterday: 77 °F

High & Low Weather Summary for the Past Weeks

 TemperatureHumidityPressure
High100 °F (Jul 17, 2:30 PM)100% (Jul 26, 5:30 AM)29.95 "Hg (Jul 26, 5:30 AM)
Low61 °F (Jul 22, 5:30 AM)23% (Jul 30, 3:00 PM)29.59 "Hg (Jul 18, 4:00 PM)
Average77 °F65%29.83 "Hg
* Reported Jul 16 12:00 AM — Jul 31 12:00 AM, Krasnodar, Weather by CustomWeather, © 2016

Note: Actual official high and low records may vary slightly from our data, if they occured in-between our weather recording intervals... More about our weather records

Advertising

Krasnodar Weather History for the Previous 24 Hours

Scroll right to see more
 ConditionsComfort  
Time TempWeatherWind HumidityBarometerVisibility
12:00 AM
Sun, Jul 31
70 °FClear.3 mph60%29.80 "Hg10 mi
11:30 PM
Sat, Jul 30
68 °FClear.3 mph69%29.80 "Hg6 mi
11:00 PM68 °FClear.3 mph69%29.83 "Hg6 mi
10:30 PM75 °FClear.1 mph50%29.80 "Hg10 mi
10:00 PM73 °FClear.1 mph57%29.80 "Hg5 mi
9:30 PM73 °FClear.3 mph57%29.80 "Hg6 mi
9:00 PM73 °FClear.1 mph57%29.80 "Hg10 mi
8:30 PM77 °FClear.3 mph51%29.80 "Hg10 mi
8:00 PM81 °FClear.3 mph45%29.80 "Hg10 mi
7:30 PM84 °FSunny.6 mph37%29.80 "Hg10 mi
7:00 PM86 °FSunny.8 mph35%29.77 "Hg10 mi
6:30 PM88 °FSunny.8 mph33%29.77 "Hg10 mi
6:00 PM90 °FSunny.10 mph29%29.77 "Hg10 mi
5:00 PM91 °FSunny.10 mph26%29.77 "Hg10 mi
4:30 PM91 °FSunny.10 mph26%29.77 "Hg10 mi
4:00 PM91 °FPassing clouds.13 mph26%29.77 "HgN/A
3:30 PM91 °FSunny.13 mph28%29.80 "Hg10 mi
3:00 PM91 °FSunny.13 mph23%29.80 "Hg10 mi
2:30 PM91 °FSunny.15 mph26%29.80 "Hg10 mi
2:00 PM91 °FPassing clouds.15 mph24%29.80 "HgN/A
1:30 PM91 °FPassing clouds.15 mph26%29.80 "HgN/A
1:00 PM90 °FSunny.17 mph31%29.80 "Hg10 mi
12:30 PM90 °FPassing clouds.17 mph27%29.80 "HgN/A
12:00 PM88 °FSunny.15 mph35%29.80 "Hg10 mi
11:30 AM86 °FSunny.13 mph38%29.83 "Hg10 mi
11:00 AM86 °FSunny.15 mph38%29.83 "Hg10 mi
10:00 AM82 °FSunny.13 mph42%29.83 "Hg10 mi
9:30 AM81 °FPassing clouds.10 mph45%29.83 "HgN/A
9:00 AM79 °FSunny.10 mph45%29.83 "Hg10 mi
8:30 AM77 °FPassing clouds.8 mph51%29.83 "HgN/A
8:00 AM75 °FSunny.8 mph50%29.83 "Hg10 mi
7:30 AM72 °FSunny.6 mph61%29.83 "Hg10 mi
7:00 AM70 °FSunny.6 mph60%29.83 "Hg10 mi
6:30 AM66 °FSunny.3 mph68%29.83 "Hg10 mi
6:00 AM63 °FSunny.6 mph73%29.83 "Hg10 mi
5:30 AM63 °FSunny.6 mph73%29.83 "Hg10 mi
5:00 AM63 °FClear.6 mph73%29.83 "Hg10 mi
4:30 AM63 °FClear.6 mph73%29.83 "Hg10 mi
4:00 AM63 °FClear.6 mph73%29.83 "Hg10 mi
3:30 AM63 °FClear.6 mph73%29.83 "Hg10 mi
3:00 AM64 °FClear.6 mph73%29.83 "Hg10 mi
2:30 AM64 °FClear.8 mph73%29.83 "Hg10 mi
2:00 AM64 °FClear.3 mph73%29.83 "Hg10 mi
1:30 AM66 °FClear.6 mph68%29.83 "Hg10 mi
1:00 AM66 °FClear.6 mph68%29.80 "Hg10 mi
Weather by CustomWeather, © 2016

See weather overviewHow to use our weather pages